This is the latest recevied weather packets stored in our database for station/object DC1NF-7. If no packets are shown the sender has not sent any weather packets the latest 10 day(s).
| Time | Temp. | Humidity | Pressure | Rain* | Wind** | Luminosity | Snow |
|---|---|---|---|---|---|---|---|
| 1777865718 | 11.67° C | 72% | 1015 hPa | 0 mm | - | 0 W/m² | - |
| 1777865174 | 11.67° C | 71% | 1014.9 hPa | 0 mm | - | 0 W/m² | - |
| 1777864573 | 11.67° C | 70% | 1014.9 hPa | 0 mm | - | 0 W/m² | - |
| 1777863970 | 12.22° C | 69% | 1014.8 hPa | 0 mm | - | 0 W/m² | - |
| 1777863364 | 12.22° C | 69% | 1014.9 hPa | 0 mm | - | 0 W/m² | - |
| 1777862760 | 12.78° C | 67% | 1014.9 hPa | 0 mm | - | 0 W/m² | - |
| 1777862162 | 12.78° C | 67% | 1014.9 hPa | 0 mm | - | 0 W/m² | - |
| 1777861552 | 12.78° C | 67% | 1014.9 hPa | 0 mm | - | 0 W/m² | - |
| 1777860948 | 12.78° C | 67% | 1014.9 hPa | 0 mm | - | 0 W/m² | - |
| 1777860347 | 13.33° C | 65% | 1014.8 hPa | 0 mm | - | 0 W/m² | - |
| 1777859742 | 12.78° C | 65% | 1014.8 hPa | 0 mm | - | 0 W/m² | - |
| 1777859135 | 12.78° C | 66% | 1014.8 hPa | 0 mm | - | 0 W/m² | - |
| 1777858532 | 12.78° C | 65% | 1014.8 hPa | 0 mm | - | 0 W/m² | - |
| 1777857929 | 12.78° C | 66% | 1014.9 hPa | 0 mm | - | 0 W/m² | - |
| 1777857325 | 12.78° C | 67% | 1014.9 hPa | 0 mm | - | 0 W/m² | - |
| 1777856725 | 12.78° C | 65% | 1015 hPa | 0 mm | - | 0 W/m² | - |
| 1777856120 | 13.33° C | 62% | 1014.9 hPa | 0 mm | - | 0 W/m² | - |
| 1777855576 | 13.89° C | 60% | 1015 hPa | 0 mm | - | 0 W/m² | - |
| 1777854978 | 13.89° C | 59% | 1015 hPa | 0 mm | - | 0 W/m² | - |
| 1777854366 | 13.33° C | 62% | 1014.9 hPa | 0 mm | - | 0 W/m² | - |
| 1777853764 | 13.89° C | 61% | 1014.9 hPa | 0 mm | - | 0 W/m² | - |
| 1777853164 | 14.44° C | 58% | 1014.8 hPa | 0 mm | - | 0 W/m² | - |
| 1777852557 | 15° C | 56% | 1014.9 hPa | 0 mm | - | 0 W/m² | - |
| 1777851954 | 16.11° C | 53% | 1014.8 hPa | 0 mm | - | 0 W/m² | - |
| 1777851350 | 16.11° C | 51% | 1014.7 hPa | 0 mm | - | 0 W/m² | - |
* Rain latest hour (hover to see other rain measurements)
** Current wind speed in m/s (hover to see current wind gust speed)